Miscellaneous Local Product
Issued by NWS North Platte, NE

Home | Current Version | Previous Version | Graphics & Text | Print | Product List | Glossary On
Versions: 1 2 3 4 5 6 7 8 9 10 11 12 13 14 15 16 17 18 19 20 21 22 23 24 25 26 27 28 29 30 31 32 33 34 35 36 37 38 39 40 41 42 43 44 45 46 47 48 49 50
000
AXUS43 KLBF 241610
MISLBF


WESTERN AND NORTH CENTRAL NEBRASKA HOURLY WEATHER ROUNDUP
NATIONAL WEATHER SERVICE NORTH PLATTE NE
1100 AM CDT WED AUG 24 2016

NOTE: "FAIR" INDICATES FEW OR NO CLOUDS BELOW 12,000 FEET WITH NO
SIGNIFICANT WEATHER AND/OR OBSTRUCTIONS TO VISIBILITY.

NOTE: STATIONS NOT REPORTING VARIABLES SUCH AS SKY/WEATHER OR
PRESSURE ARE PROVIDED BY RAWS AND APRS NETWORKS AND ARE NOT UNDER
NATIONAL WEATHER SERVICE QUALITY CONTROL.

...OBSERVATIONS IN AND NEAR THE EASTERN PANHANDLE OF NEBRASKA...

CITY           SKY/WX    TMP DP  RH WIND       PRES   REMARKS
PINE RIDGE     CLOUDY    62  46  55 NE9       30.23R
CHADRON        CLOUDY    63  41  44 NE8       30.23R
ALLIANCE       CLOUDY    60  42  51 CALM      30.23R
SIDNEY         CLOUDY    65  44  46 N9        30.23S
$$

...OBSERVATIONS IN NORTHERN NEBRASKA AND FAR SOUTHERN SOUTH DAKOTA...

CITY           SKY/WX    TMP DP  RH WIND       PRES   REMARKS
WINNER         FAIR      67  49  52 NW12      30.14R
VALENTINE      CLOUDY    63  44  50 NW8       30.20R
THEDFORD       CLOUDY    67  41  38 N12       30.17R
AINSWORTH      CLOUDY    64  48  57 NW12      30.17R
O`NEILL        CLOUDY    67  49  53 NW8       30.12R
ORD            CLOUDY    67  50  54 CALM      30.09R
BROKEN BOW     MOSUNNY   72  48  42 NE8       30.11S
VALENTINE NWR    N/A     61  44  53 N10         N/A
BUTTE            N/A     64  50  61 NW8         N/A
EWING            N/A     64  56  76 CALM        N/A
$$

...OBSERVATIONS IN SOUTHWEST NEBRASKA AND FAR NORTHEAST COLORADO...

CITY           SKY/WX    TMP DP  RH WIND       PRES   REMARKS
HOLYOKE        FAIR      68  39  34 N6        30.19F
IMPERIAL       CLOUDY    67  44  43 N7        30.17R
OGALLALA       CLOUDY    72  36  27 NE7       30.18R
NORTH PLATTE   MOSUNNY   72  45  37 NE6       30.15R
MCCOOK         PTSUNNY   70  44  39 VRB5      30.11R
LEXINGTON      CLOUDY    67  50  54 N6        30.11R
STAPLETON        N/A     68  47  46 CALM        N/A
GOTHENBURG       N/A     63  48  57 NW3         N/A
CALLAWAY         N/A     66  50  57 N3          N/A
$$

...OBSERVATIONS IN CENTRAL LINCOLN COUNTY AREA...

CITY           SKY/WX    TMP DP  RH WIND       PRES   REMARKS
N.P. AIRPORT   MOSUNNY   72  45  37 NE6       30.15R
N.P. DOWNTOWN    N/A     66  47  51 NW5         N/A
N.P. SOUTHEAST   N/A     67  47  48 CALM        N/A
N.P. HILLCREST   N/A     68  43  40 N7          N/A
$$

...SOME OBSERVATIONS FROM AROUND THE REGION...

CITY           SKY/WX    TMP DP  RH WIND       PRES   REMARKS
DENVER         CLOUDY    67  43  41 SE17      30.26R
LARAMIE        CLOUDY    62  32  32 NE7       30.30S
CHEYENNE       CLOUDY    58  44  60 E9        30.29R
SCOTTSBLUFF    CLOUDY    62  44  51 MISG      30.23R
RAPID CITY     SUNNY     66  46  48 NW16G22   30.20R
BISMARCK       MOSUNNY   68  51  54 W16G26    30.02R
PIERRE         CLOUDY    67  49  52 NW14      30.10R
SIOUX FALLS    CLOUDY    71  58  63 NW7       30.03R
OMAHA          PTSUNNY   76  65  68 N15       29.97S
GRAND ISLAND   CLOUDY    70  52  52 N10       30.06R
KANSAS CITY    CLOUDY    78  69  73 SW9       30.00R
WICHITA        CLOUDY    80  69  69 S10       30.01R
OKLAHOMA CITY  MOSUNNY   88  69  53 SW22G30   30.07R HX  92
DALLAS         MOSUNNY   85  70  60 SW15      30.12S
AMARILLO       CLOUDY    73  58  59 SW9       30.13S
DODGE CITY     CLOUDY    76  58  53 N10       30.03S
HAYS           PTSUNNY   72  59  64 NE12      30.03S
GOODLAND       PTSUNNY   69  48  47 NE13      30.15S
$$




USA.gov is the U.S. government's official web portal to all federal, state and local government web resources and services.